Regional Weather Roundup
Issued by NWS Green Bay, WI

Home | Current Version | Previous Version | Graphics & Text | Print | Product List | Glossary Off
Versions: 1 2 3 4 5 6 7 8 9 10 11 12 13 14 15 16 17 18 19 20 21 22 23 24 25 26 27 28 29 30 31 32 33 34 35 36 37 38 39 40 41 42 43 44 45 46 47 48 49 50

000
ASUS43 KGRB 251711
RWRGRB

NORTH-CENTRAL AND NORTHEAST WISCONSIN REGIONAL WEATHER ROUNDUP
NATIONAL WEATHER SERVICE GREEN BAY WI
1200 PM CDT THU MAY 25 2017

WIZ005-009-010>012-018-019-251800-
NORTH CENTRAL WISCONSIN

CITY           SKY/WX    TMP DP  RH WIND       PRES   REMARKS
IRONWOOD       CLOUDY    64  47  53 NE7       29.72F
MANITOWISH WTR MOSUNNY   64  47  53 SE6       29.71F
ARBOR VITAE    MOSUNNY   67  49  53 S7        29.70F
EAGLE RIVER    PTSUNNY   67  44  43 NE8       29.70F
LAND O LAKES   MOSUNNY   65  44  46 NE5       29.73S
RHINELANDER    MOSUNNY   69  49  48 E10       29.71S
PHILLIPS       PTSUNNY   63  50  61 CALM      29.70F
ANTIGO         CLOUDY    65  52  63 NE9       29.70S
TOMAHAWK       MOSUNNY   67  48  51 N6        29.70F
MERRILL        MOSUNNY   67  50  54 E8        29.69F
$$

WIZ013-073-251800-
NORTHEAST WISCONSIN

CITY           SKY/WX    TMP DP  RH WIND       PRES   REMARKS
IRON MOUNTAIN  MOSUNNY   68  48  48 NE9G18    29.69S
MARINETTE      SUNNY     62  52  69 E14       29.70R
OCONTO         SUNNY     64  52  66 NE8       29.69R
$$

WIZ017-030-035>037-045-251800-
CENTRAL WISCONSIN

CITY           SKY/WX    TMP DP  RH WIND       PRES   REMARKS
MEDFORD        MOSUNNY   64  51  62 NE3       29.70S
WAUSAU         MOSUNNY   67  51  56 NE8       29.67F
MOSINEE        PTSUNNY   64  54  68 NE6       29.70S
MARSHFIELD     PTSUNNY   67  51  56 E8        29.69R
WISC RAPIDS    MOSUNNY   68  53  58 CALM      29.69F
STEVENS POINT  MOSUNNY   66  50  55 E8        29.69S
WAUPACA        MOSUNNY   68  53  58 NE8       29.68F
SHAWANO        MOSUNNY   69  53  58 E10       29.69S
CLINTONVILLE   MOSUNNY   66  50  55 NE8       29.68S
WAUTOMA        MOSUNNY   68  51  54 NE12      29.68F
$$

WIZ038-039-048-051-251800-
FOX VALLEY

CITY           SKY/WX    TMP DP  RH WIND       PRES   REMARKS
NWS GREEN BAY  SUNNY     63  55  75 NE15      29.69R
APPLETON       PTSUNNY   64  50  59 NE14G20   29.66S
OSHKOSH        SUNNY     62  53  72 NE7       29.67S
FOND DU LAC    PTSUNNY   63  53  70 N10       29.68S
$$

WIZ022-050-052-251800-
EAST CENTRAL WISCONSIN

CITY           SKY/WX    TMP DP  RH WIND       PRES   REMARKS
EPHRAIM        CLOUDY    58  52  79 N12       29.68S
WASHINGTON ISL CLOUDY    60  51  72 N8        29.68F
STURGEON BAY   PTSUNNY   60  51  72 N16       29.68S
MANITOWOC      SUNNY     61  52  72 NE12      29.67S
SHEBOYGAN      MOSUNNY   66  56  70 N15       29.65S
$$

LMZ563-521-522-541>543-251800-
LAKESHORE

STATION/POSITION TIME  TEMP    WIND        PRES    VSBY  WAVE
                       AIR SEA DIR/SP/G                  HT/PER
                 (UTC) (F)     (DEG/KT/KT) (MB)    (MI)  (FT/S)
SHEBOYGAN LKSHOR 1700   50      10/ 19/ 21 1004.1S
KEWAUNEE LKSHORE 1648   55      20/  8/ 15 1004.8R
NORTHPORT PIER   1640   52     330/  6/  7 1005.8R
N MID LAKE BUOY  1650   45 40  360/ 10/ 12 1005.9F         1/ 3
CHAMBERS ISLAND  1640   54      10/  6/  7 1005.4S
MENOMINEE LKSHOR 1648           40/ 11/ 11 1004.9R
$$




USA.gov is the U.S. government's official web portal to all federal, state and local government web resources and services.